This is the latest recevied weather packets stored in our database for station/object KY0TEQ-13. If no packets are shown the sender has not sent any weather packets the latest 10 day(s).
| Time | Temp. | Humidity | Pressure | Rain* | Wind** | Luminosity | Snow |
|---|---|---|---|---|---|---|---|
| 1777939144 | 16.11° C | 20% | 1297.3 hPa | 0 mm | - | 127 W/m² | - |
| 1777938841 | 16.11° C | 20% | 1297.2 hPa | 0 mm | - | 129 W/m² | - |
| 1777938537 | 16.11° C | 20% | 1297.4 hPa | 0 mm | - | 150 W/m² | - |
| 1777938235 | 16.11° C | 20% | 1297.7 hPa | 0 mm | - | 151 W/m² | - |
| 1777937932 | 16.11° C | 20% | 1297.6 hPa | 0 mm | - | 153 W/m² | - |
| 1777937627 | 16.11° C | 19% | 1297.7 hPa | 0 mm | - | 191 W/m² | - |
| 1777937324 | 16.11° C | 19% | 1297.6 hPa | 0 mm | - | 200 W/m² | - |
| 1777937021 | 16.67° C | 18% | 1297.7 hPa | 0 mm | - | 188 W/m² | - |
| 1777936718 | 17.22° C | 17% | 1297.6 hPa | 0 mm | - | 256 W/m² | - |
| 1777936415 | 17.22° C | 17% | 1297.7 hPa | 0 mm | - | 335 W/m² | - |
| 1777936111 | 16.67° C | 17% | 1297.7 hPa | 0 mm | - | 341 W/m² | - |
| 1777935809 | 17.22° C | 17% | 1297.4 hPa | 0 mm | - | 274 W/m² | - |
| 1777935507 | 16.67° C | 19% | 1297.7 hPa | 0 mm | - | 342 W/m² | - |
| 1777935203 | 16.67° C | 18% | 1297.6 hPa | 0 mm | - | 316 W/m² | - |
| 1777934901 | 16.67° C | 19% | 1297.6 hPa | 0 mm | - | 249 W/m² | - |
| 1777934598 | 16.67° C | 19% | 1297.4 hPa | 0 mm | - | 256 W/m² | - |
| 1777934294 | 16.67° C | 18% | 1297.6 hPa | 0 mm | - | 261 W/m² | - |
| 1777933990 | 16.67° C | 17% | 1297.6 hPa | 0 mm | - | 264 W/m² | - |
| 1777933687 | 16.67° C | 17% | 1297.7 hPa | 0 mm | - | 289 W/m² | - |
| 1777933383 | 16.67° C | 18% | 1297.8 hPa | 0 mm | - | 269 W/m² | - |
| 1777933081 | 16.67° C | 21% | 1297.9 hPa | 0 mm | - | 269 W/m² | - |
| 1777932778 | 16.67° C | 22% | 1297.9 hPa | 0 mm | - | 261 W/m² | - |
| 1777932475 | 16.67° C | 26% | 1297.8 hPa | 0 mm | - | 352 W/m² | - |
| 1777932172 | 16.67° C | 24% | 1298.1 hPa | 0 mm | - | 367 W/m² | - |
| 1777931869 | 16.67° C | 25% | 1298.1 hPa | 0 mm | - | 267 W/m² | - |
* Rain latest hour (hover to see other rain measurements)
** Current wind speed in m/s (hover to see current wind gust speed)